Wind_Speed
58 51 47 43 42 34 29 30 27 13 17 23 31 32 34 37 33 35 56 43 46 73 78 76 73 69 66 62 57 53 52 50 46 42 37 35 31 27 25 25 25 22 22 22 19
49 39 40 35 37 38 34 35 30 15 5 12 26 35 35 33 31 35 48 54 34 52 77 74 71 70 66 63 58 54 53 51 49 40 37 35 33 31 29 28 26 25 23 22 21
41 41 41 44 41 48 44 37 27 23 15 5 19 31 33 31 34 32 44 49 40 44 70 69 67 68 69 64 61 55 55 53 48 41 37 36 32 31 30 30 28 26 25 24 23
38 44 43 47 38 50 42 40 31 24 18 14 15 29 32 34 34 33 24 57 49 27 65 71 66 66 65 63 61 57 58 57 49 43 41 39 38 36 33 29 29 30 28 28 27
42 41 45 47 42 44 41 31 36 26 19 19 19 26 36 35 27 19 14 46 42 40 60 70 65 66 65 63 60 59 56 51 46 45 43 40 40 36 35 32 31 32 31 31 33
50 41 43 49 46 40 43 36 26 29 21 17 21 24 26 28 9 13 10 40 54 43 57 69 63 65 63 62 60 55 53 50 49 46 45 43 41 39 36 35 36 36 34 34 34
52 46 41 42 49 36 41 38 29 22 33 36 37 46 29 21 16 12 16 29 41 51 60 66 64 63 64 61 59 53 51 50 49 47 45 43 42 40 37 38 37 37 37 36 37
53 53 45 40 45 40 43 37 38 28 29 39 20 21 23 19 15 20 21 29 38 43 60 64 60 58 55 54 53 50 48 48 48 46 45 44 40 40 39 38 37 37 37 38 39
53 51 48 40 40 44 34 39 35 33 23 22 20 22 20 17 16 23 31 45 50 48 57 53 55 52 49 49 48 46 45 46 44 44 43 42 44 38 37 37 37 38 38 39 41
54 52 52 40 35 44 38 37 33 33 29 23 19 21 11 12 21 33 34 44 43 43 47 49 48 45 46 45 42 43 45 43 41 40 39 38 40 35 39 39 40 39 39 39 41
52 52 51 47 34 37 40 35 31 29 26 22 18 12 5 9 20 29 38 35 36 40 41 42 43 41 41 38 39 39 37 38 35 37 37 37 39 37 38 38 37 37 36 34 34
49 50 50 48 39 30 31 37 33 27 23 25 20 11 13 12 23 32 36 35 34 38 39 37 35 34 33 33 34 34 36 36 36 36 36 36 35 37 35 30 31 31 31 32 33
46 48 47 46 44 34 30 30 33 31 26 22 20 16 9 11 25 29 36 32 37 37 39 36 33 32 31 30 28 27 29 29 29 30 29 29 25 26 27 28 29 32 34 35 35
42 44 46 44 42 39 32 27 26 29 32 27 18 15 14 14 23 26 25 33 28 33 37 36 33 29 26 25 23 22 21 21 21 22 23 25 25 26 30 31 32 33 35 36 38
40 40 42 43 40 36 33 32 29 23 30 30 24 16 16 16 16 21 24 24 25 28 31 33 30 25 24 22 21 21 20 20 21 22 24 27 30 28 31 33 33 35 37 39 42
38 38 38 39 40 37 35 29 27 27 26 27 28 23 16 18 17 15 19 21 23 25 25 26 30 30 27 26 25 25 25 26 27 29 30 30 32 30 29 31 34 37 38 38 39
35 36 36 35 36 38 36 32 28 29 21 21 25 25 23 15 19 17 15 20 21 24 23 24 25 25 26 26 27 27 28 27 27 28 29 29 28 27 25 26 27 29 31 33 36
31 33 34 34 32 34 35 33 32 29 28 23 25 23 22 21 16 13 17 16 17 22 24 24 23 25 26 26 26 25 25 24 23 21 19 20 21 22 25 28 28 28 28 24 27
27 30 30 31 32 31 32 29 33 30 25 21 19 20 19 18 16 15 12 14 17 18 21 22 23 24 25 25 24 22 21 19 18 19 20 21 23 27 27 29 31 27 20 20 18
26 26 25 27 29 30 28 26 27 29 28 22 19 18 17 16 15 15 15 13 11 14 18 19 21 22 23 22 21 21 21 20 21 23 24 26 27 29 31 29 25 21 20 19 20
26 25 24 23 25 26 26 26 24 23 23 24 23 20 16 14 14 12 11 12 12 9 11 15 19 19 20 20 20 21 22 23 24 26 28 26 26 27 24 20 21 21 21 21 24
25 24 24 24 22 22 23 24 24 22 19 18 18 19 19 18 15 11 10 9 6 7 9 10 13 15 17 19 20 21 22 24 27 26 22 22 18 19 19 22 24 25 24 25 26
24 24 23 23 22 20 19 20 20 19 19 17 15 14 13 12 12 12 11 10 8 5 2 3 7 10 12 14 17 19 22 23 24 23 20 20 16 21 25 28 28 24 25 26 28
22 24 24 22 23 21 21 16 16 17 17 16 15 13 11 10 8 7 5 5 5 5 4 3 4 5 7 10 12 16 17 18 18 16 19 19 21 24 30 29 25 29 29 28 29
23 24 27 25 24 24 21 20 15 14 14 15 14 13 12 10 8 7 7 6 5 5 5 6 7 9 10 12 12 15 16 19 19 20 25 22 25 29 32 34 33 34 35 37 38
27 25 27 28 27 25 24 21 21 17 15 15 14 14 13 11 12 10 9 10 11 12 12 13 13 15 16 17 19 20 21 25 24 24 25 28 24 32 32 34 35 37 38 40 41
29 29 29 30 29 28 25 23 21 22 18 17 17 17 17 15 14 14 14 15 14 16 18 18 19 19 19 24 25 19 23 28 29 29 30 29 31 31 33 35 37 38 40 40 42
Wind_Direction
0 5 7 12 9 359 358 352 350 314 251 238 226 211 207 208 203 191 186 187 193 204 199 196 195 198 199 202 202 202 201 202 203 202 204 204 204 205 206 212 215 216 220 230 240
3 10 9 8 12 6 5 355 8 6 303 224 207 206 206 209 204 195 188 201 199 198 197 195 194 195 197 201 201 202 203 204 206 203 204 208 207 209 212 218 222 226 232 243 252
3 8 3 4 10 360 13 14 12 29 48 135 190 195 202 192 193 177 183 174 181 190 196 195 193 192 194 198 199 198 203 204 206 207 205 212 212 215 219 224 229 237 244 250 260
5 13 6 10 18 9 11 21 26 18 43 73 146 174 177 191 192 158 170 181 192 198 191 195 191 190 191 197 198 199 204 206 203 205 208 212 215 219 222 228 235 242 250 259 264
13 13 11 13 15 20 21 19 24 40 55 62 129 157 177 184 182 147 144 177 193 195 188 193 190 188 188 194 200 201 203 207 206 207 211 214 220 222 225 231 239 247 252 260 268
22 12 11 12 20 37 32 29 36 50 67 86 111 145 159 167 146 183 165 173 193 197 180 189 190 188 185 192 197 200 202 204 206 210 214 217 221 226 230 235 242 249 256 265 272
24 22 18 14 18 37 31 40 41 77 68 83 119 119 107 106 116 167 169 174 177 181 175 183 187 189 185 190 195 198 202 204 208 211 216 219 225 229 234 239 245 250 258 265 270
23 26 23 23 21 29 42 41 43 46 68 79 91 106 120 76 92 156 173 182 186 179 176 184 186 188 185 188 193 197 201 204 209 213 217 222 227 233 238 243 250 256 262 269 274
24 27 25 29 24 30 37 40 53 63 51 67 93 122 124 64 86 147 164 163 163 169 175 179 182 185 187 186 191 197 203 207 210 217 222 226 231 238 245 253 259 264 270 274 277
22 26 29 30 31 32 36 39 45 66 58 61 104 120 131 61 100 129 140 149 150 160 170 173 177 182 184 187 191 197 204 208 213 218 224 231 237 242 248 255 260 266 271 273 276
22 24 28 33 36 36 35 40 48 56 64 58 77 125 124 137 109 130 134 143 146 157 160 165 172 178 183 186 190 195 205 211 218 223 229 234 241 247 253 259 267 268 268 268 270
25 25 27 32 36 40 38 41 47 49 53 67 69 83 120 135 136 139 139 141 152 160 159 159 165 174 180 188 193 201 205 212 219 227 233 240 246 253 257 258 259 262 264 266 269
26 26 28 30 35 39 47 44 42 51 58 65 73 78 96 127 145 144 144 151 157 157 150 151 160 169 176 183 188 200 208 216 223 230 237 241 242 248 253 253 257 262 264 266 268
25 27 27 30 34 39 43 43 45 43 51 61 73 85 100 120 146 145 149 155 152 159 154 153 157 163 167 172 179 184 191 203 214 223 232 239 243 250 254 256 258 259 262 267 271
24 27 29 29 34 39 40 42 45 50 51 54 60 86 110 121 131 148 150 155 158 161 161 156 161 166 172 179 186 193 202 212 223 231 238 245 250 243 253 259 259 266 270 272 274
26 25 30 30 32 39 40 39 44 53 56 48 57 65 91 126 138 151 154 159 159 164 166 166 166 173 181 189 197 205 213 220 228 234 240 243 249 251 256 262 270 274 275 277 278
28 27 27 31 31 35 40 42 48 52 64 57 61 67 74 86 131 143 160 168 170 173 177 174 175 182 189 197 205 212 218 224 230 237 241 246 255 264 263 265 264 270 275 277 279
24 28 28 28 30 36 36 38 44 54 60 61 66 67 71 79 95 129 151 166 180 181 181 180 180 186 190 196 202 207 211 217 223 229 237 246 247 260 265 273 277 280 284 285 286
14 24 26 27 28 32 39 31 39 47 55 60 61 63 70 75 83 105 122 160 174 184 187 183 182 188 192 197 200 207 212 220 230 242 249 253 262 269 271 272 272 277 271 280 296
6 15 18 24 26 29 35 31 36 39 46 52 56 59 61 63 71 88 108 120 146 182 189 194 194 198 203 207 212 219 226 235 244 251 256 262 264 268 269 270 268 264 272 285 291
358 3 5 15 19 24 27 29 32 37 38 39 46 56 61 70 76 71 83 104 117 144 181 200 202 209 216 223 229 234 241 248 254 257 256 257 259 265 264 262 267 272 281 288 291
348 353 355 359 8 10 18 21 25 29 33 34 34 36 49 60 65 75 82 77 85 114 141 170 196 211 215 223 227 230 236 241 243 250 254 255 247 256 263 268 272 277 285 284 282
339 342 346 348 351 351 360 9 15 18 21 26 27 26 26 33 52 64 73 86 99 110 140 187 208 204 213 214 219 222 227 229 236 238 237 237 247 260 266 267 270 281 280 277 281
325 330 333 337 335 338 339 347 354 3 4 8 13 15 15 12 9 12 30 58 70 92 119 142 177 207 223 232 237 239 235 236 234 235 239 250 251 257 260 265 277 284 279 280 279
316 319 319 325 325 325 327 326 330 333 341 351 351 355 355 352 345 335 322 307 287 264 259 256 255 253 250 251 252 254 256 256 255 255 256 260 267 271 276 283 283 285 289 289 288
310 310 312 312 315 317 317 317 314 312 315 318 324 332 327 325 325 323 314 306 299 287 276 269 259 254 257 256 255 253 262 265 265 265 266 268 270 270 277 279 277 278 282 286 287
301 305 309 309 305 308 308 307 307 305 302 304 306 307 309 309 304 303 299 295 292 290 289 287 279 271 270 269 264 261 258 263 267 271 270 269 269 274 276 279 282 285 288 289 291
Height
5674 5659 5645 5632 5622 5609 5598 5591 5582 5574 5573 5575 5582 5592 5600 5609 5619 5629 5638 5646 5659 5676 5693 5706 5721 5737 5748 5762 5773 5783 5791 5798 5806 5814 5823 5827 5833 5838 5844 5847 5850 5854 5856 5858 5861
5675 5661 5647 5634 5625 5612 5601 5588 5580 5572 5569 5570 5576 5586 5596 5608 5618 5626 5635 5645 5656 5670 5685 5703 5716 5728 5743 5758 5768 5778 5788 5795 5802 5813 5821 5826 5830 5835 5840 5843 5847 5850 5853 5856 5858
5674 5662 5649 5638 5629 5616 5604 5590 5581 5575 5569 5567 5573 5583 5594 5607 5615 5620 5631 5645 5658 5665 5680 5697 5709 5723 5737 5750 5762 5771 5782 5791 5800 5811 5818 5823 5829 5832 5836 5840 5845 5849 5851 5853 5854
5675 5664 5652 5642 5631 5619 5608 5596 5586 5578 5575 5572 5574 5583 5595 5605 5615 5622 5632 5642 5647 5660 5672 5689 5706 5719 5733 5747 5757 5766 5778 5787 5797 5807 5813 5819 5823 5827 5833 5839 5842 5844 5847 5850 5851
5678 5668 5656 5646 5636 5626 5613 5603 5593 5585 5580 5580 5583 5589 5595 5608 5617 5624 5631 5640 5649 5661 5672 5691 5705 5715 5727 5742 5754 5765 5777 5789 5797 5803 5810 5816 5820 5825 5830 5833 5838 5840 5843 5845 5847
5681 5670 5661 5650 5642 5632 5623 5611 5601 5595 5590 5589 5593 5598 5607 5617 5621 5627 5632 5641 5651 5660 5673 5689 5704 5714 5721 5737 5752 5765 5774 5784 5792 5799 5806 5812 5818 5822 5826 5830 5834 5836 5839 5841 5842
5686 5675 5665 5657 5648 5640 5633 5622 5612 5604 5601 5600 5604 5609 5617 5624 5626 5628 5634 5641 5648 5659 5671 5684 5697 5713 5725 5738 5751 5761 5771 5779 5788 5795 5803 5809 5814 5819 5824 5827 5830 5833 5835 5837 5837
5690 5680 5670 5662 5656 5646 5641 5634 5625 5617 5616 5621 5621 5623 5627 5631 5633 5634 5639 5644 5652 5662 5675 5689 5706 5720 5729 5739 5749 5758 5767 5776 5784 5792 5799 5805 5811 5816 5819 5824 5827 5829 5831 5832 5833
5697 5686 5676 5669 5665 5655 5650 5646 5641 5636 5626 5629 5632 5634 5636 5636 5638 5638 5643 5649 5659 5672 5682 5698 5709 5722 5731 5737 5748 5756 5766 5774 5782 5790 5796 5802 5806 5813 5817 5820 5822 5824 5826 5828 5827
5703 5694 5684 5676 5670 5665 5659 5655 5651 5647 5644 5640 5642 5645 5645 5646 5646 5649 5655 5660 5667 5678 5691 5701 5711 5721 5729 5739 5748 5757 5764 5773 5781 5788 5793 5799 5803 5810 5812 5815 5818 5820 5821 5821 5821
5710 5700 5691 5683 5678 5674 5670 5665 5664 5659 5656 5652 5647 5652 5654 5656 5656 5659 5663 5671 5679 5687 5696 5704 5713 5721 5729 5740 5748 5757 5765 5771 5780 5785 5790 5795 5799 5805 5808 5811 5814 5814 5814 5814 5815
5718 5708 5699 5691 5685 5681 5678 5674 5671 5669 5665 5659 5658 5659 5661 5664 5667 5670 5675 5680 5688 5695 5700 5710 5719 5730 5737 5743 5751 5757 5763 5771 5777 5783 5788 5793 5799 5801 5804 5807 5807 5808 5809 5809 5809
5724 5717 5709 5700 5692 5687 5684 5682 5679 5675 5672 5668 5667 5666 5668 5671 5673 5678 5682 5687 5692 5698 5703 5711 5720 5729 5736 5743 5751 5758 5765 5771 5777 5782 5787 5791 5796 5797 5800 5801 5802 5803 5804 5803 5803
5731 5724 5717 5709 5701 5694 5691 5688 5685 5683 5679 5678 5675 5675 5676 5677 5680 5683 5688 5693 5699 5705 5707 5713 5723 5731 5739 5746 5753 5758 5764 5769 5775 5780 5785 5788 5793 5794 5795 5796 5797 5798 5797 5797 5795
5737 5731 5724 5717 5710 5703 5699 5694 5691 5688 5687 5687 5684 5683 5682 5685 5688 5691 5694 5699 5704 5709 5716 5720 5727 5735 5741 5747 5753 5758 5763 5768 5773 5778 5781 5785 5787 5789 5788 5789 5791 5791 5791 5792 5790
5743 5737 5731 5726 5719 5712 5707 5703 5700 5698 5694 5693 5692 5690 5691 5691 5693 5697 5701 5705 5710 5714 5719 5723 5728 5735 5742 5747 5752 5757 5761 5765 5769 5773 5777 5779 5781 5783 5785 5786 5786 5785 5784 5783 5781
5749 5744 5738 5732 5728 5721 5715 5712 5709 5703 5702 5702 5700 5698 5697 5698 5699 5702 5705 5709 5713 5718 5722 5725 5730 5736 5741 5746 5751 5755 5759 5763 5767 5769 5772 5775 5777 5778 5779 5779 5780 5780 5778 5776 5774
5754 5749 5744 5739 5734 5729 5724 5721 5717 5712 5709 5708 5707 5707 5705 5705 5706 5707 5709 5713 5716 5719 5723 5727 5733 5736 5741 5745 5750 5753 5757 5760 5762 5766 5769 5770 5771 5773 5774 5773 5773 5773 5772 5769 5765
5757 5753 5750 5746 5740 5735 5731 5730 5724 5720 5718 5716 5714 5712 5713 5713 5712 5711 5713 5715 5718 5721 5726 5728 5732 5736 5740 5745 5749 5752 5754 5757 5760 5762 5764 5766 5767 5768 5768 5768 5767 5766 5765 5764 5762
5760 5756 5755 5751 5746 5742 5739 5737 5732 5728 5725 5723 5722 5720 5718 5718 5718 5718 5718 5719 5721 5723 5725 5729 5732 5735 5739 5743 5746 5749 5752 5755 5756 5758 5760 5761 5762 5762 5762 5762 5761 5760 5761 5761 5759
5761 5758 5756 5753 5751 5748 5744 5741 5738 5735 5733 5731 5728 5727 5726 5724 5723 5723 5724 5723 5723 5725 5727 5729 5733 5736 5738 5741 5743 5746 5748 5750 5753 5755 5756 5757 5758 5756 5756 5756 5756 5756 5757 5756 5754
5762 5760 5757 5754 5753 5751 5749 5745 5743 5740 5738 5736 5734 5733 5731 5730 5730 5728 5728 5729 5729 5729 5729 5730 5731 5734 5736 5737 5740 5742 5744 5746 5747 5751 5750 5750 5753 5751 5751 5750 5750 5750 5750 5749 5747
5761 5759 5757 5755 5753 5751 5750 5748 5747 5744 5742 5740 5738 5737 5736 5735 5734 5733 5733 5733 5733 5734 5735 5736 5736 5736 5737 5738 5737 5738 5739 5740 5741 5743 5745 5745 5748 5746 5744 5742 5742 5744 5742 5741 5739
5761 5759 5757 5754 5752 5751 5749 5748 5748 5746 5744 5742 5740 5739 5738 5738 5738 5737 5736 5735 5736 5736 5736 5737 5738 5739 5740 5739 5740 5739 5739 5739 5740 5742 5741 5742 5741 5740 5736 5734 5737 5736 5734 5733 5731
5758 5756 5754 5752 5751 5749 5748 5747 5745 5745 5744 5743 5742 5740 5739 5738 5738 5738 5738 5737 5737 5736 5736 5737 5737 5737 5738 5738 5739 5739 5739 5739 5740 5739 5737 5739 5737 5735 5734 5733 5731 5729 5728 5726 5724
5756 5754 5752 5749 5747 5746 5745 5744 5744 5742 5742 5741 5741 5740 5739 5738 5738 5737 5736 5736 5736 5736 5736 5735 5736 5735 5735 5734 5734 5735 5735 5734 5735 5735 5734 5732 5733 5727 5728 5725 5724 5723 5721 5719 5717
5750 5749 5747 5745 5743 5742 5741 5739 5739 5739 5739 5737 5737 5737 5736 5736 5735 5735 5735 5734 5733 5733 5732 5732 5731 5732 5732 5729 5727 5731 5729 5728 5728 5728 5726 5726 5723 5722 5719 5717 5715 5713 5711 5709 5707